Showing default

ASBM-1, 60422

Orbit data source: Space-Track

ASBM-1, 60422 is a payload satellite in HEO that was launched on Mon, 12 Aug 2024 UTC via an FALCON 9 launch vehicle from the Air Force Western Test Range (AFWTR). Payload-class satellites include a variety of spacecraft equipped with specific instruments for various scientific and technological missions. These include communications satellites like Starlink; space stations such as the ISS; scientific satellites like the Hubble; Earth observation satellites from companies like Planet Labs, Umbra, and HawkEye 360; GPS; miniature CubeSats for education and research; and military/defense satellites.

Loading next visibility...
Identifier
60422, 2024-143A
Orbit
HEO
Last TLE update
3 days ago
Origin
Manufacturer
NGIS SSG
Mission
Operational Commercial Communications
Bus & Motor
GEOSTAR-3, BT-4?
Mass
3,695 kg wet, 2,035 kg dry
Launch date (UTC)
2024-08-12 (9 months ago)
Launch vehicle
FALCON 9
Launch site
Air Force Western Test Range (AFWTR)
Object type
Payload
Rocket body
Debris
Shape & HBR
Box + 2 Pan, 27 m
Radar Cross Section
35.796 m², Large (>1 m²)

Expand to show TLE details & history

TLE from 3 days ago
0 ASBM-1
1 60422U 24143A   25138.62144775  .00000003  00000-0  00000-0 0  9996
2 60422  62.5499  60.5947 5435612 268.5118  31.8678  1.50418748  5689
Epoch: 2025-05-18T14:54Z
TLE epoch observation values (Epoch: 2025-05-18T14:54:53.085Z)
Latitude
0.00012°
Longitude
-39.66225°
Altitude
16,665.257 km
Speed
4.713 km/s
True Right ascension
04h 02m 25s
True Declination
0° 00' 00"
Sunlit
Object was in daylight at epoch
Visualization orbit readout
Latitude
37.96023°
Longitude
-15.94232°
Altitude
30,607.274 km
Speed
3.028 km/s
Apparent Right ascension
05h 01m 10s
Apparent Declination
34° 34' 53"
Sunlit
Object is in daylight
Visualization observer readout
Local Sidereal Time
09:37:56
Azimuth
287.838° WNW
Elevation
36.05°
Doppler factor
1
Orbital elements
Apogee altitude
43,287.078 km
Perigee altitude
8,308.117 km
Semi-major axis
32,175.734 km
Eccentricity
0.54356
Inclination
62.5499°
RAAN
60.5947°
Arg. of periapsis
268.5118°
True anomaly
Unknown
Mean anomaly
31.8678°
Eccentric anomaly
Unknown
Mean motion
0.37605 °/min
Orbital period
957.31 mins
BSTAR
0
Loading maneuver chart data...
Loading SW <> Apogee altitude chart data...
Loading historical data...
Loading historical data...
Loading historical data...
Loading historical data...
Loading historical data...
Loading historical data...
Loading historical data...
Other satellites on launch #143 in the year 2024 (2024-08-12 UTC)

ASBM-1 Visibility forecast

Observer location: undefined°, undefined°

Span
Click to sort rows by Start time (UTC) header in descending order
Start Az.
Max El. time (UTC)
Max El. Az.
Max El.
End time (UTC)
End Az.
638 mins2025-05-22 00:38:48.506Z287.817° WNW2025-05-22 07:01:48.506Z319.165° NNW33.191°2025-05-22 11:16:48.506Z273.376° WNW
580 mins2025-05-22 14:58:48.506Z98.326° ESE2025-05-22 19:26:48.506Z42.361° NE36.471°2025-05-23 00:38:48.506Z54.576° ENE
|